GW1402 Weather Reports


Display with metric or nautical units.
time (UTC)temp
F
wind
direction
speed
MPH
gust
MPH
rain 1hr
in
rain 24hr
in
rain mn
in
humidity
%
barometer
mb
20260906233626 75 249 3.0 4.0 0.00 0.00 0.00 32 1420.7
20260906232627 75 172 5.0 7.0 0.00 0.00 0.00 37 1422.0
20260906231627 75 207 15.0 18.0 0.00 0.00 0.00 35 1422.0
20260906230629 75 270 4.0 5.0 0.00 0.00 0.00 40 1421.0
20260906225628 76 292 2.0 3.0 0.00 0.00 0.00 38 1421.0
20260906224725 78 269 2.0 6.0 0.00 0.00 0.00 33 1421.0
20260906223726 80 249 6.0 7.0 0.00 0.00 0.00 31 1420.8
20260906222727 82 281 3.0 4.0 0.00 0.00 0.00 30 1420.7
20260906221728 82 315 0.0 1.0 0.00 0.00 0.00 31 1420.8
20260906215726 81 315 0.0 1.0 0.00 0.00 0.00 31 1421.1
20260906213826 82 339 6.0 9.0 0.00 0.00 0.00 30 1421.1
20260906212826 83 337 5.0 7.0 0.00 0.00 0.00 29 1421.2
20260906210827 83 335 1.0 3.0 0.00 0.00 0.00 30 1421.3
20260906205827 82 337 1.0 5.0 0.00 0.00 0.00 29 1421.4
20260906204927 83 315 1.0 3.0 0.00 0.00 0.00 29 1421.6
20260906201928 81 332 1.0 4.0 0.00 0.00 0.00 30 1422.5
20260906201025 80 338 1.0 3.0 0.00 0.00 0.00 31 1422.6
20260906200027 79 349 3.0 6.0 0.00 0.00 0.00 31 1422.9
20260906195028 78 17 3.0 6.0 0.00 0.00 0.00 29 1423.1
20260906193225 78 356 2.0 4.0 0.00 0.00 0.00 31 1423.2
20260906193126 78 22 2.0 4.0 0.00 0.00 0.00 31 1423.4
20260906192128 77 360 4.0 6.0 0.00 0.00 0.00 32 1423.4
20260906192029 77 341 2.0 5.0 0.00 0.00 0.00 32 1423.6
20260906191028 78 16 0.0 2.0 0.00 0.00 0.00 32 1423.6
20260906190127 78 3 2.0 4.0 0.00 0.00 0.00 34 1423.9
20260906185125 77 337 0.0 1.0 0.00 0.00 0.00 34 1424.1
20260906184128 77 329 2.0 4.0 0.00 0.00 0.00 34 1424.5
20260906182125 76 22 0.0 0.0 0.00 0.00 0.00 34 1424.7
20260906180127 73 5 3.0 5.0 0.00 0.00 0.00 37 1425.1
20260906175225 73 13 4.0 6.0 0.00 0.00 0.00 39 1425.4
20260906174226 72 6 2.0 6.0 0.00 0.00 0.00 41 1425.6
20260906173226 71 38 4.0 6.0 0.00 0.00 0.00 42 1425.8
20260906172227 70 12 3.0 5.0 0.00 0.00 0.00 42 1426.2
20260906171226 69 32 4.0 7.0 0.00 0.00 0.00 44 1426.0
20260906170225 69 32 6.0 9.0 0.00 0.00 0.00 44 1426.2
20260906165227 68 42 4.0 7.0 0.00 0.00 0.00 46 1426.2
20260906163327 68 40 4.0 8.0 0.00 0.00 0.00 46 1426.4
20260906162327 67 32 3.0 5.0 0.00 0.00 0.00 48 1426.6
20260906161328 67 24 4.0 5.0 0.00 0.00 0.00 49 1426.6
20260906160328 66 14 3.0 6.0 0.00 0.00 0.00 51 1426.8
20260906155328 65 15 4.0 5.0 0.00 0.00 0.00 51 1427.2
20260906154328 64 36 4.0 6.0 0.00 0.00 0.00 53 1427.1
20260906153327 64 24 3.0 5.0 0.00 0.00 0.00 54 1427.2
20260906152425 62 34 3.0 5.0 0.00 0.00 0.00 56 1427.2
20260906151427 61 29 4.0 6.0 0.00 0.00 0.00 60 1427.0
20260906145426 57 28 1.0 3.0 0.00 0.00 0.00 66 1427.2
20260906143428 54 45 2.0 3.0 0.00 0.00 0.00 69 1427.3
20260906142526 53 22 1.0 2.0 0.00 0.00 0.00 71 1427.2
20260906141526 52 65 1.0 2.0 0.00 0.00 0.00 74 1427.0
20260906140526 51 67 1.0 2.0 0.00 0.00 0.00 76 1427.0
20260906134527 50 21 3.0 4.0 0.00 0.00 0.00 77 1426.8
20260906133527 48 6 3.0 3.0 0.00 0.00 0.00 81 1426.6
20260906132527 47 22 2.0 3.0 0.00 0.00 0.00 82 1426.6
20260906131527 46 45 3.0 4.0 0.00 0.00 0.00 82 1426.5
20260906130527 46 24 2.0 3.0 0.00 0.00 0.00 83 1426.3
20260906125528 45 31 2.0 3.0 0.00 0.00 0.00 83 1426.3
20260906124625 45 51 0.0 2.0 0.00 0.00 0.00 79 1426.2
20260906123626 46 360 0.0 0.0 0.00 0.00 0.00 80 1426.0
20260906122626 46 21 2.0 3.0 0.00 0.00 0.00 79 1426.0
20260906121726 47 45 1.0 1.0 0.00 0.00 0.00 77 1426.0
20260906121627 47 45 1.0 1.0 0.00 0.00 0.00 77 1426.0
20260906120627 49 336 1.0 4.0 0.00 0.00 0.00 75 1426.2
20260906115627 48 232 3.0 4.0 0.00 0.00 0.00 76 1426.0
20260906114725 48 225 2.0 2.0 0.00 0.00 0.00 75 1425.8
20260906113728 49 202 3.0 4.0 0.00 0.00 0.00 74 1426.0
20260906112726 49 270 4.0 5.0 0.00 0.00 0.00 75 1425.8
20260906110826 49 270 4.0 4.0 0.00 0.00 0.00 75 1425.7
20260906110727 49 270 4.0 6.0 0.00 0.00 0.00 75 1425.8
20260906105825 49 278 5.0 6.0 0.00 0.00 0.00 75 1425.6
20260906104826 50 270 5.0 7.0 0.00 0.00 0.00 73 1425.5
20260906103827 50 270 5.0 5.0 0.00 0.00 0.00 72 1425.7
20260906102826 51 286 4.0 4.0 0.00 0.00 0.00 71 1425.5
20260906101828 52 272 4.0 5.0 0.00 0.00 0.00 66 1425.4
20260906100827 53 135 0.0 0.0 0.00 0.00 0.00 66 1425.5
20260906095826 55 112 3.0 4.0 0.00 0.00 0.00 61 1425.5
20260906094826 57 225 3.0 4.0 0.00 0.00 0.00 58 1425.4
20260906093827 57 225 4.0 5.0 0.00 0.00 0.00 57 1425.3
20260906091925 56 223 4.0 4.0 0.00 0.00 0.00 60 1425.4
20260906090926 56 225 4.0 5.0 0.00 0.00 0.00 60 1425.4
20260906085929 57 216 6.0 7.0 0.00 0.00 0.00 60 1425.4
20260906084945 56 225 7.0 8.0 0.00 0.00 0.00 62 1425.4
20260906083925 55 225 6.0 7.0 0.00 0.00 0.00 63 1425.4
20260906082926 55 225 6.0 7.0 0.00 0.00 0.00 64 1425.4
20260906081926 55 225 6.0 7.0 0.00 0.00 0.00 63 1425.4
20260906081026 57 225 4.0 4.0 0.00 0.00 0.00 60 1425.5
20260906080125 58 228 5.0 7.0 0.00 0.00 0.00 58 1425.4
20260906075143 58 244 7.0 9.0 0.00 0.00 0.00 59 1425.7
20260906074127 57 246 8.0 11.0 0.00 0.00 0.00 59 1425.7
20260906074026 57 246 8.0 9.0 0.00 0.00 0.00 59 1425.7
20260906073041 57 249 6.0 8.0 0.00 0.00 0.00 59 1425.6
20260906072025 56 225 5.0 6.0 0.00 0.00 0.00 62 1425.1
20260906071028 55 225 4.0 5.0 0.00 0.00 0.00 62 1425.3
20260906070125 57 225 5.0 6.0 0.00 0.00 0.00 60 1425.0
20260906065126 56 225 6.0 7.0 0.00 0.00 0.00 60 1424.8
20260906064225 57 225 6.0 7.0 0.00 0.00 0.00 59 1424.9
20260906062329 57 225 5.0 6.0 0.00 0.00 0.00 59 1424.7
20260906061327 57 225 5.0 6.0 0.00 0.00 0.00 61 1424.7
20260906060325 57 225 5.0 6.0 0.00 0.00 0.00 60 1424.5
20260906055419 57 225 5.0 6.0 0.00 0.00 0.00 60 1424.4
20260906054421 57 225 6.0 7.0 0.00 0.00 0.00 60 1424.5
20260906052421 59 225 5.0 6.0 0.00 0.00 0.00 57 1424.6
20260906051519 60 225 6.0 7.0 0.00 0.00 0.00 57 1424.8
20260906050536 59 226 7.0 10.0 0.00 0.00 0.00 57 1424.8
20260906045620 60 202 5.0 6.0 0.00 0.00 0.00 57 1425.0
20260906044719 61 225 5.0 6.0 0.00 0.00 0.00 55 1425.0
20260906043719 61 202 5.0 7.0 0.00 0.00 0.00 55 1425.3
20260906042719 60 222 7.0 9.0 0.00 0.00 0.00 58 1425.1
20260906041719 61 225 6.0 8.0 0.00 0.00 0.00 58 1425.1
20260906040719 62 225 6.0 7.0 0.00 0.00 0.00 56 1425.0
20260906035818 62 225 7.0 8.0 0.00 0.00 0.00 55 1424.8
20260906034819 62 236 8.0 11.0 0.00 0.00 0.00 56 1424.7
20260906033825 63 225 7.0 9.0 0.00 0.00 0.00 55 1424.6
20260906032919 63 225 7.0 9.0 0.00 0.00 0.00 55 1424.7
20260906031921 63 225 8.0 10.0 0.00 0.00 0.00 56 1424.5
20260906031018 64 194 7.0 7.0 0.00 0.00 0.00 57 1424.4
20260906030919 64 184 6.0 7.0 0.00 0.00 0.00 57 1424.4
20260906025920 64 225 6.0 8.0 0.00 0.00 0.00 57 1424.3
20260906023921 63 221 6.0 8.0 0.00 0.00 0.00 61 1423.8
20260906022934 64 225 8.0 10.0 0.00 0.00 0.00 59 1423.5
20260906022020 65 253 6.0 7.0 0.00 0.00 0.00 57 1423.4
20260906020018 67 225 6.0 7.0 0.00 0.00 0.00 53 1423.2
20260906014019 73 292 2.0 4.0 0.00 0.00 0.00 47 1422.5
20260906013020 78 270 2.0 2.0 0.00 0.00 0.00 37 1422.5
20260906012117 81 337 0.0 0.0 0.00 0.00 0.00 33 1422.4
20260906010120 83 337 0.0 0.0 0.00 0.00 0.00 31 1422.5
20260906005121 83 337 0.0 0.0 0.00 0.00 0.00 29 1422.4
20260906004121 82 337 0.0 0.0 0.00 0.00 0.00 26 1422.4
20260906003220 82 9 2.0 4.0 0.00 0.00 0.00 26 1422.5
20260906002219 82 348 2.0 4.0 0.00 0.00 0.00 25 1422.9
20260906001219 83 354 2.0 5.0 0.00 0.00 0.00 25 1422.5